This demonstration page uses our WeatherBlox Daily Observations layout. Learn more.

41.55636, -103.73856

Hourly Observations for August 9, 2019

Temp ( °F °C ) Dew Point ( °F °C ) Humidity (%) Winds ( mph kmh ) Pressure ( in mb ) Visibility ( mi km ) Precip ( " mm )
12:58 am 00:58 Mostly Cloudy 76 24.5 60 15.3 57 57 SSE 9 15 29.92 1013 10 16.0934 0 0
1:58 am 01:58 Mostly Cloudy 74 23.2 60 15.6 62 62 S 17 28 29.94 1014 10 16.0934 0 0
2:58 am 02:58 Mostly Cloudy 71 21.5 59 15.2 67 67 SSE 8 13 29.94 1014 10 16.0934 0 0
3:58 am 03:58 Mostly Cloudy with Light Rain 69 20.3 60 15.6 75 75 S 9 15 29.98 1015 10 16.0934 0 0
4:58 am 04:58 Mostly Cloudy with Showers 66 19 62 16.7 87 87 SSW 13 20 29.91 1013 10 16.0934 0.02 0.508
5:58 am 05:58 Mostly Cloudy 67 19.3 62 16.6 84 84 S 21 33 29.89 1012 10 16.0934 0.06 1.524
6:58 am 06:58 Mostly Cloudy 66 18.8 62 16.8 88 88 S 13 20 29.88 1012 10 16.0934 0 0
7:58 am 07:58 Clear 64 18 62 16.4 90 90 Calm 29.88 1012 10 16.0934 0 0
8:58 am 08:58 Clear 65 18.6 62 16.7 89 89 S 7 11 29.92 1013 10 16.0934 0 0
9:58 am 09:58 Mostly Cloudy 64 17.6 62 16.5 93 93 SSE 12 19 29.89 1012 8 12.87472 0 0
10:58 am 10:58 Partly Cloudy 64 17.6 62 16.7 95 95 Calm 29.91 1013 7 11.26538 0 0
11:58 am 11:58 Partly Cloudy with Mist and Fog 64 17.5 62 16.5 94 94 S 7 11 29.91 1013 5 8.0467 0 0
12:58 pm 12:58 Mostly Cloudy with Mist and Fog 65 18.1 63 17 93 93 S 6 9 29.92 1013 5 8.0467 0 0
1:58 pm 13:58 Mostly Cloudy 67 19.6 64 17.7 89 89 SW 9 15 29.91 1013 10 16.0934 0 0
2:58 pm 14:58 Sunny 71 21.7 64 17.5 77 77 SSW 10 17 29.91 1013 10 16.0934 0.01 0.254
3:58 pm 15:58 Sunny 76 24.2 61 16 60 60 SSW 10 17 29.91 1013 10 16.0934 0 0
4:58 pm 16:58 Sunny 80 26.4 55 12.7 43 43 W 3 6 29.9 1013 10 16.0934 0 0
5:58 pm 17:58 Sunny 83 28.1 55 12.5 38 38 WNW 6 9 29.88 1012 10 16.0934 0 0
6:58 pm 18:58 Sunny 84 29.1 54 12 35 35 WSW 5 7 29.86 1011 10 16.0934 0 0
7:58 pm 19:58 Sunny 86 29.9 52 11.3 32 32 W 8 13 29.85 1011 10 16.0934 0 0
8:58 pm 20:58 Sunny 87 30.8 51 10.6 29 29 N 12 19 29.83 1010 10 16.0934 0 0
9:58 pm 21:58 Sunny 88 31.3 49 9.2 25 25 N 6 9 29.82 1010 10 16.0934 0 0
10:58 pm 22:58 Sunny 89 31.5 47 8.2 23 23 WNW 7 11 29.82 1010 10 16.0934 0 0
11:58 pm 23:58 Mostly Sunny 89 31.6 47 8.5 24 24 Calm 29.82 1010 10 16.0934 0 0

Powered by AerisWeather